Total_Precipitation_Accumulation
0.16 0.15 0.08 0.09 0.11 0.10 0.09 0.06 0.08 0.08 0.12 0.11 0.14 0.15 0.16 0.16 0.13 0.14 0.17 0.17 0.22 0.30
0.06 0.04 0.05 0.05 0.04 0.04 0.02 0.01 0.02 0.03 0.04 0.05 0.06 0.09 0.09 0.09 0.09 0.12 0.10 0.08 0.14 0.21
0.01 0.01 0.01 0.02 0.02 0.02 0.01 0.01 0.01 0.02 0.02 0.03 0.05 0.08 0.08 0.07 0.06 0.09 0.12 0.12 0.11 0.14
0.00 0.00 0.00 0.01 0.01 0.02 0.02 0.01 0.02 0.03 0.02 0.02 0.04 0.06 0.09 0.08 0.08 0.15 0.24 0.21 0.20 0.22
0.00 0.01 0.02 0.02 0.01 0.02 0.03 0.01 0.02 0.03 0.03 0.02 0.03 0.03 0.06 0.10 0.11 0.12 0.21 0.23 0.23 0.28
0.03 0.04 0.04 0.03 0.03 0.03 0.04 0.02 0.02 0.04 0.04 0.03 0.04 0.05 0.05 0.06 0.09 0.16 0.22 0.24 0.19 0.20
0.07 0.09 0.09 0.08 0.08 0.07 0.05 0.03 0.03 0.03 0.04 0.04 0.04 0.05 0.05 0.06 0.08 0.10 0.17 0.26 0.23 0.22
0.10 0.09 0.07 0.07 0.08 0.07 0.06 0.04 0.02 0.04 0.05 0.05 0.05 0.06 0.05 0.06 0.07 0.08 0.09 0.12 0.15 0.23
0.16 0.17 0.14 0.10 0.09 0.10 0.10 0.07 0.07 0.04 0.05 0.08 0.07 0.10 0.08 0.06 0.05 0.07 0.08 0.07 0.08 0.16
0.22 0.23 0.21 0.14 0.11 0.13 0.14 0.12 0.11 0.10 0.06 0.05 0.06 0.10 0.06 0.07 0.06 0.08 0.08 0.08 0.07 0.09
0.25 0.23 0.28 0.20 0.16 0.15 0.17 0.18 0.14 0.12 0.09 0.06 0.06 0.13 0.11 0.11 0.07 0.07 0.08 0.08 0.07 0.07
0.26 0.22 0.30 0.29 0.25 0.23 0.22 0.26 0.26 0.16 0.11 0.11 0.08 0.10 0.10 0.15 0.09 0.12 0.10 0.06 0.08 0.11
0.31 0.28 0.30 0.26 0.39 0.43 0.32 0.27 0.24 0.22 0.19 0.25 0.13 0.17 0.14 0.15 0.11 0.11 0.14 0.19 0.14 0.16
0.61 0.46 0.42 0.38 0.31 0.46 0.46 0.32 0.32 0.34 0.33 0.29 0.36 0.31 0.30 0.24 0.08 0.07 0.09 0.12 0.15 0.19